Location: Unspecified
(35.6895°N, 139.6917°E)
Time: 01:44:05
(UTC+00:00)

ASTRO H - Pass Details

Date: 06 October 2021
Orbit: 561 x 579 km, 31.0° (Epoch: 22 October)

Event Time Altitude Azimuth Distance (km) Brightness Sun altitude
Rises 10:59:40 0° 259° (WSW) 2,736 ? -33.2°
Reaches altitude 10° 11:02:01 10° 253° (WSW) 1,839 ? -33.6°
Enters shadow 11:02:32 13° 250° (WSW) 1,651 ? -33.7°
